Hourly Weather Rudica

Today, 29 July, Thursday

Time Temperature Precipitation Wind Pressure Humidity
00:00 +19°C° 0 mm 0 mps 743 mmHg 73%
01:00 +19°C° 0 mm 0 mps 742 mmHg 75%
02:00 +18°C° 0 mm 0 mps 742 mmHg 77%
03:00 +20°C° 0 mm 1 mps 742 mmHg 78%
04:00 +20°C° 0 mm 1 mps 742 mmHg 79%
05:00 +20°C° 0 mm 1 mps 742 mmHg 80%
06:00 +22°C° 0 mm 1 mps 742 mmHg 74%
07:00 +24°C° 0 mm 1 mps 742 mmHg 67%
08:00 +26°C° 0 mm 1 mps 742 mmHg 61%
09:00 +26°C° 0 mm 1 mps 741 mmHg 60%
10:00 +27°C° 0 mm 2 mps 741 mmHg 59%
11:00 +27°C° 0 mm 2 mps 741 mmHg 59%
12:00 +26°C° 0.3 mm 2 mps 741 mmHg 67%
13:00 +24°C° 0.3 mm 3 mps 741 mmHg 76%
14:00 +22°C° 0.3 mm 3 mps 741 mmHg 84%
15:00 +24°C° 0.3 mm 3 mps 741 mmHg 79%
16:00 +25°C° 0.3 mm 4 mps 741 mmHg 73%
17:00 +25°C° 0.3 mm 4 mps 741 mmHg 68%
18:00 +23°C° 0.1 mm 4 mps 741 mmHg 74%
19:00 +22°C° 0.1 mm 3 mps 741 mmHg 80%
20:00 +21°C° 0.1 mm 2 mps 741 mmHg 87%
21:00 +20°C° 0 mm 2 mps 741 mmHg 89%
22:00 +19°C° 0 mm 2 mps 741 mmHg 91%
23:00 +19°C° 0 mm 2 mps 742 mmHg 94%

Tomorrow, 30 July, Friday

Time Temperature Precipitation Wind Pressure Humidity
00:00 +18°C° 0 mm 2 mps 742 mmHg 93%
01:00 +18°C° 0 mm 2 mps 742 mmHg 92%
02:00 +18°C° 0 mm 2 mps 742 mmHg 91%
03:00 +17°C° 0 mm 2 mps 742 mmHg 91%
04:00 +17°C° 0 mm 2 mps 742 mmHg 91%
05:00 +17°C° 0 mm 2 mps 742 mmHg 91%
06:00 +19°C° 0 mm 3 mps 742 mmHg 82%
07:00 +21°C° 0 mm 3 mps 742 mmHg 72%
08:00 +23°C° 0 mm 4 mps 742 mmHg 63%
09:00 +25°C° 0 mm 4 mps 742 mmHg 55%
10:00 +26°C° 0 mm 5 mps 742 mmHg 48%
11:00 +27°C° 0 mm 6 mps 742 mmHg 40%
12:00 +27°C° 0 mm 6 mps 742 mmHg 40%
13:00 +27°C° 0 mm 6 mps 742 mmHg 40%
14:00 +27°C° 0 mm 6 mps 742 mmHg 39%
15:00 +27°C° 0 mm 5 mps 742 mmHg 42%
16:00 +27°C° 0 mm 4 mps 741 mmHg 44%
17:00 +26°C° 0 mm 4 mps 741 mmHg 47%
18:00 +25°C° 0 mm 3 mps 741 mmHg 51%
19:00 +24°C° 0 mm 2 mps 741 mmHg 55%
20:00 +23°C° 0 mm 1 mps 741 mmHg 59%
21:00 +21°C° 0 mm 2 mps 741 mmHg 61%
22:00 +20°C° 0 mm 2 mps 741 mmHg 63%
23:00 +19°C° 0 mm 2 mps 741 mmHg 65%

Day after tomorrow, 31 July, Saturday

Time Temperature Precipitation Wind Pressure Humidity
00:00 +18°C° 0 mm 2 mps 741 mmHg 67%
01:00 +18°C° 0 mm 2 mps 741 mmHg 69%
02:00 +17°C° 0 mm 2 mps 741 mmHg 72%
03:00 +17°C° 0 mm 2 mps 741 mmHg 73%
04:00 +16°C° 0 mm 2 mps 741 mmHg 75%
05:00 +16°C° 0 mm 2 mps 741 mmHg 76%
06:00 +18°C° 0 mm 2 mps 741 mmHg 70%
07:00 +20°C° 0 mm 3 mps 741 mmHg 64%
08:00 +22°C° 0 mm 3 mps 741 mmHg 58%
09:00 +25°C° 0 mm 4 mps 741 mmHg 53%
10:00 +26°C° 0 mm 4 mps 741 mmHg 47%
11:00 +28°C° 0 mm 4 mps 741 mmHg 41%
12:00 +29°C° 0 mm 4 mps 741 mmHg 39%
13:00 +29°C° 0 mm 4 mps 741 mmHg 38%
14:00 +30°C° 0 mm 4 mps 741 mmHg 36%
15:00 +30°C° 0 mm 3 mps 741 mmHg 36%
16:00 +30°C° 0 mm 3 mps 740 mmHg 37%
17:00 +30°C° 0 mm 2 mps 740 mmHg 38%
18:00 +28°C° 0 mm 2 mps 740 mmHg 44%
19:00 +26°C° 0 mm 2 mps 740 mmHg 51%
20:00 +24°C° 0 mm 2 mps 739 mmHg 57%
21:00 +21°C° 3.7 mm 2 mps 740 mmHg 70%
22:00 +20°C° 3.7 mm 2 mps 740 mmHg 83%
23:00 +18°C° 3.7 mm 2 mps 740 mmHg 96%

1 August, Sunday

Time Temperature Precipitation Wind Pressure Humidity
00:00 +19°C° 1.3 mm 1 mps 740 mmHg 96%
01:00 +19°C° 1.3 mm 1 mps 740 mmHg 97%
02:00 +19°C° 1.3 mm 1 mps 740 mmHg 97%
03:00 +18°C° 0 mm 2 mps 740 mmHg 97%
04:00 +18°C° 0 mm 2 mps 740 mmHg 97%
05:00 +18°C° 0 mm 2 mps 740 mmHg 97%
06:00 +19°C° 0 mm 3 mps 741 mmHg 92%
07:00 +20°C° 0 mm 3 mps 741 mmHg 87%
08:00 +21°C° 0 mm 3 mps 741 mmHg 82%
09:00 +22°C° 0 mm 4 mps 741 mmHg 69%
10:00 +25°C° 0 mm 4 mps 741 mmHg 57%
11:00 +27°C° 0 mm 4 mps 742 mmHg 44%
12:00 +27°C° 0 mm 4 mps 742 mmHg 43%
13:00 +28°C° 0 mm 4 mps 742 mmHg 41%
14:00 +28°C° 0 mm 4 mps 742 mmHg 40%
15:00 +28°C° 0 mm 4 mps 742 mmHg 42%
16:00 +28°C° 0 mm 3 mps 741 mmHg 45%
17:00 +27°C° 0 mm 2 mps 741 mmHg 47%
18:00 +26°C° 0 mm 2 mps 741 mmHg 53%
19:00 +24°C° 0 mm 1 mps 741 mmHg 59%
20:00 +22°C° 0 mm 1 mps 741 mmHg 65%
21:00 +22°C° 0 mm 1 mps 741 mmHg 66%
22:00 +20°C° 0 mm 2 mps 740 mmHg 67%
23:00 +20°C° 0 mm 3 mps 740 mmHg 68%

2 August, Monday

Time Temperature Precipitation Wind Pressure Humidity
00:00 +19°C° 0.5 mm 2 mps 739 mmHg 75%
01:00 +19°C° 0.5 mm 2 mps 739 mmHg 82%
02:00 +18°C° 0.5 mm 2 mps 739 mmHg 89%
03:00 +18°C° 0.8 mm 2 mps 738 mmHg 91%
04:00 +17°C° 0.8 mm 3 mps 738 mmHg 93%
05:00 +17°C° 0.8 mm 3 mps 737 mmHg 95%
06:00 +18°C° 0.1 mm 4 mps 737 mmHg 93%
07:00 +19°C° 0.1 mm 4 mps 737 mmHg 90%
08:00 +21°C° 0.1 mm 5 mps 736 mmHg 87%
09:00 +21°C° 0 mm 5 mps 736 mmHg 82%
10:00 +22°C° 0 mm 6 mps 736 mmHg 78%
11:00 +23°C° 0 mm 6 mps 737 mmHg 74%
12:00 +22°C° 0.1 mm 6 mps 737 mmHg 76%
13:00 +22°C° 0.1 mm 5 mps 737 mmHg 79%
14:00 +21°C° 0.1 mm 5 mps 737 mmHg 81%
15:00 +19°C° 0.2 mm 5 mps 738 mmHg 83%
16:00 +17°C° 0.2 mm 6 mps 739 mmHg 85%
17:00 +15°C° 0.2 mm 6 mps 740 mmHg 87%
18:00 +15°C° 0 mm 5 mps 740 mmHg 87%
19:00 +14°C° 0 mm 5 mps 740 mmHg 87%
20:00 +14°C° 0 mm 4 mps 740 mmHg 87%
21:00 +13°C° 0 mm 4 mps 741 mmHg 90%
22:00 +13°C° 0 mm 4 mps 741 mmHg 93%
23:00 +12°C° 0 mm 3 mps 742 mmHg 96%

3 August, Tuesday

Time Temperature Precipitation Wind Pressure Humidity
00:00 +12°C° 0 mm 3 mps 742 mmHg 96%
01:00 +12°C° 0 mm 3 mps 742 mmHg 96%
02:00 +12°C° 0 mm 3 mps 742 mmHg 96%
03:00 +12°C° 0 mm 3 mps 742 mmHg 96%
04:00 +12°C° 0 mm 3 mps 742 mmHg 97%
05:00 +13°C° 0 mm 2 mps 742 mmHg 97%
06:00 +14°C° 0 mm 3 mps 743 mmHg 89%
07:00 +17°C° 0 mm 3 mps 743 mmHg 81%
08:00 +18°C° 0 mm 3 mps 743 mmHg 73%
09:00 +20°C° 0.1 mm 4 mps 743 mmHg 66%
10:00 +21°C° 0.1 mm 4 mps 743 mmHg 59%
11:00 +22°C° 0.1 mm 4 mps 744 mmHg 52%
12:00 +23°C° 0.1 mm 4 mps 744 mmHg 52%
13:00 +23°C° 0.1 mm 5 mps 743 mmHg 51%
14:00 +23°C° 0.1 mm 5 mps 743 mmHg 51%
15:00 +22°C° 0.1 mm 4 mps 744 mmHg 51%
16:00 +22°C° 0.1 mm 4 mps 744 mmHg 51%
17:00 +22°C° 0.1 mm 4 mps 744 mmHg 50%
18:00 +21°C° 0 mm 3 mps 744 mmHg 56%
19:00 +19°C° 0 mm 2 mps 744 mmHg 61%
20:00 +18°C° 0 mm 2 mps 744 mmHg 66%
21:00 +17°C° 0 mm 2 mps 744 mmHg 68%
22:00 +16°C° 0 mm 1 mps 745 mmHg 69%
23:00 +15°C° 0 mm 1 mps 745 mmHg 71%
Show more

We Need Your Consent

Meteoprog and our Service Providers may store and access personal data such as cookies, device identifiers or other similar technologies on your device and process such data to personalise content and ads, as well as provide social media features and to analyse the traffic.

  • Store and/or access information on your device

    Cookies, device identifiers or other information can be stored or accessed on your device for the purposes indicated above.

  • Personalised ads and content, ad and content measurement, audience insights, and products development

    Ads and content can be personalised based on a profile. More data can be added to better personalise ads and content. Ad and content performance can be measured. Insights about the audience who saw the ads and content can be derived. Such data can be used to develop or improve user’s experience, systems and software.

By clicking ‘I Agree’ you will allow the use of indicated cookies, device identifiers, web beacons or other similar technologies. Your settings can be changed in the browser on your device.

For certain purposes, legitimate interests may be relied on, rather than consent. You can read more about this in our Privacy and Cookie Policy.